Zurück zum Katalog

FENGYUN 1C DEB

AktivSSO
NORAD 30688·DEBRIS·🇨🇳 China

Gestartet May 10, 1999 von Taiyuan Satellite Launch Center

Loading…

Nächste Überflüge (nächste 24 Stunden)

TLE

AktuellSource: Space-Track

Epoche: Sep 12, 2026, 23:39 UTC

1 30688U 99025AQW 26255.98602542  .00002354  00000-0  84528-3 0  9990
2 30688  98.6879 335.6866 0016077 222.4211 313.6369 14.34739398 11910

Verfolge FENGYUN 1C DEB in Echtzeit mit AllMySat

Download on the App Store